Time,TemperatureF,DewpointF,PressureIn,WindDirection,WindDirectionDegrees,WindSpeedMPH,WindSpeedGustMPH,Humidity,HourlyPrecipIn,Conditions,Clouds,dailyrainin,SoftwareType,DateUTC
2013-02-26 00:00:00,31.7,26.8,30.05,NE,36,0.0,4.0,82,0.00,,,0.02,VWS V14.01,2013-02-26 05:00:00,
2013-02-26 00:05:00,31.6,26.8,30.05,ENE,66,0.0,4.0,82,0.00,,,0.00,VWS V14.01,2013-02-26 05:05:00,
2013-02-26 00:10:00,31.5,26.9,30.05,NE,41,1.0,3.0,83,0.00,,,0.00,VWS V14.01,2013-02-26 05:10:00,
2013-02-26 00:15:00,31.5,26.9,30.05,NE,41,0.0,3.0,83,0.00,,,0.00,VWS V14.01,2013-02-26 05:15:00,
2013-02-26 00:20:00,31.4,26.8,30.04,ESE,104,0.0,3.0,83,0.00,,,0.00,VWS V14.01,2013-02-26 05:20:00,
2013-02-26 00:25:00,31.4,26.8,30.03,NE,34,1.0,7.0,83,0.00,,,0.00,VWS V14.01,2013-02-26 05:25:00,
2013-02-26 00:30:00,31.3,26.8,30.03,SE,124,2.0,7.0,83,0.00,,,0.00,VWS V14.01,2013-02-26 05:30:00,
2013-02-26 00:35:00,31.3,26.8,30.03,East,87,0.0,7.0,83,0.00,,,0.00,VWS V14.01,2013-02-26 05:35:00,
2013-02-26 00:40:00,31.4,26.8,30.03,NE,44,0.0,3.0,83,0.00,,,0.00,VWS V14.01,2013-02-26 05:40:00,
2013-02-26 00:45:00,31.5,26.6,30.02,NE,51,0.0,5.0,82,0.00,,,0.00,VWS V14.01,2013-02-26 05:45:00,
2013-02-26 00:50:00,31.5,26.6,30.02,ENE,61,3.0,5.0,82,0.00,,,0.00,VWS V14.01,2013-02-26 05:50:00,
2013-02-26 00:55:00,31.5,26.6,30.02,NE,48,0.0,3.0,82,0.00,,,0.00,VWS V14.01,2013-02-26 05:55:00,
2013-02-26 01:00:00,31.5,26.4,30.02,ENE,61,0.0,3.0,81,0.00,,,0.00,VWS V14.01,2013-02-26 06:00:00,
2013-02-26 01:05:00,31.4,26.2,30.02,East,91,2.0,3.0,81,0.00,,,0.00,VWS V14.01,2013-02-26 06:05:00,
2013-02-26 01:10:00,31.3,26.2,30.02,NE,44,1.0,3.0,81,0.00,,,0.00,VWS V14.01,2013-02-26 06:10:00,
2013-02-26 01:15:00,31.2,26.1,30.01,ENE,64,1.0,3.0,81,0.00,,,0.00,VWS V14.01,2013-02-26 06:15:00,
2013-02-26 01:20:00,31.3,26.2,30.01,NE,39,2.0,7.0,81,0.00,,,0.00,VWS V14.01,2013-02-26 06:20:00,
2013-02-26 01:24:00,31.4,26.0,30.01,ENE,78,2.0,7.0,80,0.00,,,0.00,VWS V14.01,2013-02-26 06:24:00,
2013-02-26 01:29:00,31.5,26.0,30.01,NE,51,3.0,5.0,80,0.00,,,0.00,VWS V14.01,2013-02-26 06:29:00,
2013-02-26 01:34:00,31.6,25.9,30.01,NNE,15,0.0,5.0,79,0.00,,,0.00,VWS V14.01,2013-02-26 06:34:00,
2013-02-26 01:39:00,31.5,25.8,30.00,NE,50,0.0,5.0,79,0.00,,,0.00,VWS V14.01,2013-02-26 06:39:00,
2013-02-26 01:44:00,31.5,25.4,30.00,North,5,5.0,6.0,78,0.00,,,0.00,VWS V14.01,2013-02-26 06:44:00,
2013-02-26 01:49:00,31.5,25.4,30.00,NE,56,1.0,8.0,78,0.00,,,0.00,VWS V14.01,2013-02-26 06:49:00,
2013-02-26 01:54:00,31.5,25.4,30.00,North,360,1.0,8.0,78,0.00,,,0.00,VWS V14.01,2013-02-26 06:54:00,
2013-02-26 01:59:00,31.5,25.4,30.00,NE,36,0.0,5.0,78,0.00,,,0.00,VWS V14.01,2013-02-26 06:59:00,
2013-02-26 02:04:00,31.5,25.4,29.99,NE,41,4.0,6.0,78,0.00,,,0.00,VWS V14.01,2013-02-26 07:04:00,
2013-02-26 02:09:00,31.4,25.4,29.98,ENE,75,3.0,6.0,78,0.00,,,0.00,VWS V14.01,2013-02-26 07:09:00,
2013-02-26 02:14:00,31.4,25.4,29.98,ENE,62,8.0,8.0,78,0.00,,,0.00,VWS V14.01,2013-02-26 07:14:00,
2013-02-26 02:19:00,31.4,25.0,29.98,NE,52,0.0,8.0,77,0.00,,,0.00,VWS V14.01,2013-02-26 07:19:00,
2013-02-26 02:24:00,31.4,25.0,29.99,NE,44,0.0,8.0,77,0.00,,,0.00,VWS V14.01,2013-02-26 07:24:00,
2013-02-26 02:29:00,31.4,25.0,29.99,East,81,2.0,8.0,77,0.00,,,0.00,VWS V14.01,2013-02-26 07:29:00,
2013-02-26 02:34:00,31.3,24.9,29.99,ENE,74,3.0,8.0,77,0.00,,,0.00,VWS V14.01,2013-02-26 07:34:00,
2013-02-26 02:39:00,31.3,24.9,29.98,NE,55,2.0,7.0,77,0.00,,,0.00,VWS V14.01,2013-02-26 07:39:00,
2013-02-26 02:44:00,31.3,24.9,29.98,East,86,0.0,7.0,77,0.00,,,0.00,VWS V14.01,2013-02-26 07:44:00,
2013-02-26 02:49:00,31.2,24.8,29.98,ENE,59,3.0,7.0,77,0.00,,,0.00,VWS V14.01,2013-02-26 07:49:00,
2013-02-26 02:54:00,31.2,24.8,29.97,East,86,1.0,7.0,77,0.00,,,0.00,VWS V14.01,2013-02-26 07:54:00,
2013-02-26 02:59:00,31.2,24.8,29.96,SSE,161,2.0,7.0,77,0.00,,,0.00,VWS V14.01,2013-02-26 07:59:00,
2013-02-26 03:04:00,31.2,24.8,29.95,NE,47,1.0,8.0,77,0.00,,,0.00,VWS V14.01,2013-02-26 08:04:00,
2013-02-26 03:09:00,31.2,24.8,29.95,SSE,162,3.0,8.0,77,0.00,,,0.00,VWS V14.01,2013-02-26 08:09:00,
2013-02-26 03:14:00,31.3,24.9,29.95,NNE,33,3.0,8.0,77,0.00,,,0.00,VWS V14.01,2013-02-26 08:14:00,
2013-02-26 03:19:00,31.3,24.9,29.95,East,84,0.0,7.0,77,0.00,,,0.00,VWS V14.01,2013-02-26 08:19:00,
2013-02-26 03:24:00,31.4,25.0,29.95,ENE,69,0.0,6.0,77,0.00,,,0.00,VWS V14.01,2013-02-26 08:24:00,
2013-02-26 03:29:00,31.3,24.9,29.95,NE,53,0.0,6.0,77,0.00,,,0.00,VWS V14.01,2013-02-26 08:29:00,
2013-02-26 03:34:00,31.3,24.9,29.94,East,98,2.0,4.0,77,0.00,,,0.00,VWS V14.01,2013-02-26 08:34:00,
2013-02-26 03:39:00,31.2,24.5,29.94,ENE,76,0.0,5.0,76,0.00,,,0.00,VWS V14.01,2013-02-26 08:39:00,
2013-02-26 03:44:00,31.3,24.9,29.94,NNW,338,2.0,5.0,77,0.00,,,0.00,VWS V14.01,2013-02-26 08:44:00,
2013-02-26 03:49:00,31.3,24.6,29.93,NE,56,3.0,6.0,76,0.00,,,0.00,VWS V14.01,2013-02-26 08:49:00,
2013-02-26 03:54:00,31.3,24.9,29.91,NNW,340,3.0,7.0,77,0.00,,,0.00,VWS V14.01,2013-02-26 08:54:00,
2013-02-26 03:59:00,31.3,24.9,29.91,ENE,57,0.0,8.0,77,0.00,,,0.00,VWS V14.01,2013-02-26 08:59:00,
2013-02-26 04:04:00,31.3,24.6,29.90,ESE,106,5.0,13.0,76,0.00,,,0.00,VWS V14.01,2013-02-26 09:04:00,
2013-02-26 04:09:00,31.4,24.7,29.89,NE,54,3.0,13.0,76,0.00,,,0.00,VWS V14.01,2013-02-26 09:09:00,
2013-02-26 04:14:00,31.4,24.7,29.89,NNE,21,0.0,13.0,76,0.00,,,0.00,VWS V14.01,2013-02-26 09:14:00,
2013-02-26 04:19:00,31.4,24.7,29.89,East,86,2.0,7.0,76,0.00,,,0.00,VWS V14.01,2013-02-26 09:19:00,
2013-02-26 04:24:00,31.4,24.7,29.87,NNE,28,1.0,7.0,76,0.00,,,0.00,VWS V14.01,2013-02-26 09:24:00,
2013-02-26 04:29:00,31.4,24.7,29.88,NE,36,2.0,6.0,76,0.00,,,0.00,VWS V14.01,2013-02-26 09:29:00,
2013-02-26 04:34:00,31.4,25.0,29.87,NE,37,3.0,6.0,77,0.00,,,0.00,VWS V14.01,2013-02-26 09:34:00,
2013-02-26 04:39:00,31.3,24.6,29.88,North,351,2.0,6.0,76,0.00,,,0.00,VWS V14.01,2013-02-26 09:39:00,
2013-02-26 04:44:00,31.3,24.6,29.88,East,97,0.0,6.0,76,0.00,,,0.00,VWS V14.01,2013-02-26 09:44:00,
2013-02-26 04:49:00,31.3,24.9,29.88,East,93,0.0,5.0,77,0.00,,,0.00,VWS V14.01,2013-02-26 09:49:00,
2013-02-26 04:54:00,31.3,24.9,29.89,NNE,22,0.0,7.0,77,0.00,,,0.00,VWS V14.01,2013-02-26 09:54:00,
2013-02-26 04:59:00,31.4,24.7,29.90,East,88,6.0,7.0,76,0.00,,,0.00,VWS V14.01,2013-02-26 09:59:00,
2013-02-26 05:04:00,31.5,24.8,29.90,East,80,1.0,7.0,76,0.00,,,0.00,VWS V14.01,2013-02-26 10:04:00,
2013-02-26 05:09:00,31.5,24.8,29.89,NE,43,1.0,7.0,76,0.00,,,0.00,VWS V14.01,2013-02-26 10:09:00,
2013-02-26 05:14:00,31.4,24.7,29.89,ENE,59,1.0,5.0,76,0.00,,,0.00,VWS V14.01,2013-02-26 10:14:00,
2013-02-26 05:19:00,31.4,25.0,29.89,ENE,76,0.0,4.0,77,0.00,,,0.00,VWS V14.01,2013-02-26 10:19:00,
2013-02-26 05:24:00,31.4,25.0,29.89,NNE,29,0.0,4.0,77,0.00,,,0.00,VWS V14.01,2013-02-26 10:24:00,
2013-02-26 05:29:00,31.4,25.0,29.87,NE,40,2.0,6.0,77,0.00,,,0.00,VWS V14.01,2013-02-26 10:29:00,
2013-02-26 05:34:00,31.4,25.0,29.86,NE,46,0.0,6.0,77,0.00,,,0.00,VWS V14.01,2013-02-26 10:34:00,
2013-02-26 05:39:00,31.4,25.0,29.87,ESE,111,0.0,6.0,77,0.00,,,0.00,VWS V14.01,2013-02-26 10:39:00,
2013-02-26 05:44:00,31.4,25.0,29.86,ENE,67,3.0,9.0,77,0.00,,,0.00,VWS V14.01,2013-02-26 10:44:00,
2013-02-26 05:49:00,31.5,25.1,29.86,NE,42,2.0,9.0,77,0.00,,,0.00,VWS V14.01,2013-02-26 10:49:00,
2013-02-26 05:54:00,31.6,24.9,29.86,North,5,7.0,9.0,76,0.00,,,0.00,VWS V14.01,2013-02-26 10:54:00,
2013-02-26 05:59:00,31.7,25.0,29.86,NE,49,5.0,8.0,76,0.00,,,0.00,VWS V14.01,2013-02-26 10:59:00,
2013-02-26 06:04:00,31.7,25.0,29.85,North,360,2.0,8.0,76,0.00,,,0.00,VWS V14.01,2013-02-26 11:04:00,
2013-02-26 06:09:00,31.8,25.1,29.85,NE,35,2.0,8.0,76,0.00,,,0.00,VWS V14.01,2013-02-26 11:09:00,
2013-02-26 06:14:00,31.8,25.1,29.84,NNE,20,4.0,8.0,76,0.00,,,0.00,VWS V14.01,2013-02-26 11:14:00,
2013-02-26 06:19:00,31.8,24.8,29.84,ENE,57,1.0,8.0,75,0.00,,,0.00,VWS V14.01,2013-02-26 11:19:00,
2013-02-26 06:24:00,31.8,24.8,29.84,ENE,65,1.0,8.0,75,0.00,,,0.00,VWS V14.01,2013-02-26 11:24:00,
2013-02-26 06:29:00,31.9,24.9,29.83,NE,54,0.0,9.0,75,0.00,,,0.00,VWS V14.01,2013-02-26 11:29:00,
2013-02-26 06:34:00,31.9,24.9,29.82,NNE,17,5.0,10.0,75,0.00,,,0.00,VWS V14.01,2013-02-26 11:34:00,
2013-02-26 06:39:00,31.9,24.9,29.82,ESE,105,2.0,10.0,75,0.00,,,0.00,VWS V14.01,2013-02-26 11:39:00,
2013-02-26 06:44:00,31.9,24.9,29.82,NNE,30,5.0,10.0,75,0.00,,,0.00,VWS V14.01,2013-02-26 11:44:00,
2013-02-26 06:49:00,31.9,24.9,29.83,NNE,24,7.0,10.0,75,0.00,,,0.00,VWS V14.01,2013-02-26 11:49:00,
2013-02-26 06:53:00,32.0,24.7,29.83,East,87,2.0,10.0,74,0.00,,,0.00,VWS V14.01,2013-02-26 11:53:00,
2013-02-26 06:58:00,32.1,24.8,29.83,ENE,71,0.0,9.0,74,0.00,,,0.00,VWS V14.01,2013-02-26 11:58:00,
2013-02-26 07:03:00,32.2,24.9,29.83,ENE,57,1.0,8.0,74,0.00,,,0.00,VWS V14.01,2013-02-26 12:03:00,
2013-02-26 07:08:00,32.3,25.0,29.83,NE,46,5.0,7.0,74,0.00,,,0.00,VWS V14.01,2013-02-26 12:08:00,
2013-02-26 07:13:00,32.3,25.0,29.83,NE,44,2.0,6.0,74,0.00,,,0.00,VWS V14.01,2013-02-26 12:13:00,
2013-02-26 07:18:00,32.3,25.0,29.83,ENE,61,1.0,6.0,74,0.00,,,0.00,VWS V14.01,2013-02-26 12:18:00,
2013-02-26 07:23:00,32.3,25.0,29.83,East,92,3.0,9.0,74,0.00,,,0.00,VWS V14.01,2013-02-26 12:23:00,
2013-02-26 07:28:00,32.4,24.7,29.82,NNE,24,2.0,9.0,73,0.00,,,0.00,VWS V14.01,2013-02-26 12:28:00,
2013-02-26 07:33:00,32.4,25.0,29.82,NE,40,3.0,9.0,74,0.00,,,0.00,VWS V14.01,2013-02-26 12:33:00,
2013-02-26 07:38:00,32.4,25.0,29.80,NE,34,1.0,8.0,74,0.00,,,0.00,VWS V14.01,2013-02-26 12:38:00,
2013-02-26 07:43:00,32.5,24.8,29.80,NNE,20,3.0,10.0,73,0.00,,,0.00,VWS V14.01,2013-02-26 12:43:00,
2013-02-26 07:48:00,32.7,24.7,29.80,ENE,71,4.0,10.0,72,0.00,,,0.00,VWS V14.01,2013-02-26 12:48:00,
2013-02-26 07:53:00,32.8,24.8,29.81,North,5,3.0,10.0,72,0.00,,,0.00,VWS V14.01,2013-02-26 12:53:00,
2013-02-26 07:58:00,32.9,24.9,29.81,North,5,2.0,8.0,72,0.00,,,0.00,VWS V14.01,2013-02-26 12:58:00,
2013-02-26 08:03:00,33.0,25.0,29.81,NE,49,4.0,9.0,72,0.00,,,0.00,VWS V14.01,2013-02-26 13:03:00,
2013-02-26 08:08:00,33.0,25.0,29.80,North,5,1.0,9.0,72,0.00,,,0.00,VWS V14.01,2013-02-26 13:08:00,
2013-02-26 08:13:00,33.1,25.1,29.81,East,84,3.0,9.0,72,0.00,,,0.00,VWS V14.01,2013-02-26 13:13:00,
2013-02-26 08:18:00,33.2,25.2,29.81,North,355,4.0,8.0,72,0.00,,,0.00,VWS V14.01,2013-02-26 13:18:00,
2013-02-26 08:23:00,33.3,24.9,29.80,NE,37,1.0,9.0,71,0.00,,,0.00,VWS V14.01,2013-02-26 13:23:00,
2013-02-26 08:28:00,33.4,25.0,29.80,NNE,18,3.0,9.0,71,0.00,,,0.00,VWS V14.01,2013-02-26 13:28:00,
2013-02-26 08:33:00,33.5,25.1,29.80,East,83,3.0,9.0,71,0.00,,,0.00,VWS V14.01,2013-02-26 13:33:00,
2013-02-26 08:38:00,33.6,24.9,29.80,NNE,17,0.0,9.0,70,0.00,,,0.00,VWS V14.01,2013-02-26 13:38:00,
2013-02-26 08:43:00,33.7,25.3,29.79,ENE,63,1.0,9.0,71,0.00,,,0.00,VWS V14.01,2013-02-26 13:43:00,
2013-02-26 08:48:00,33.8,25.1,29.79,East,80,1.0,9.0,70,0.00,,,0.00,VWS V14.01,2013-02-26 13:48:00,
2013-02-26 08:53:00,33.9,25.2,29.79,NNE,30,0.0,7.0,70,0.00,,,0.00,VWS V14.01,2013-02-26 13:53:00,
2013-02-26 08:58:00,33.9,25.2,29.78,NE,51,0.0,8.0,70,0.00,,,0.00,VWS V14.01,2013-02-26 13:58:00,
2013-02-26 09:03:00,34.0,25.6,29.78,NNE,13,4.0,9.0,71,0.00,,,0.00,VWS V14.01,2013-02-26 14:03:00,
2013-02-26 09:08:00,34.0,25.3,29.77,ENE,76,8.0,12.0,70,0.00,,,0.00,VWS V14.01,2013-02-26 14:08:00,
2013-02-26 09:13:00,34.1,25.4,29.76,NE,37,3.0,12.0,70,0.00,,,0.00,VWS V14.01,2013-02-26 14:13:00,
2013-02-26 09:18:00,34.2,25.5,29.75,ENE,73,5.0,12.0,70,0.00,,,0.00,VWS V14.01,2013-02-26 14:18:00,
2013-02-26 09:23:00,34.3,25.5,29.75,NNE,23,2.0,11.0,70,0.00,,,0.00,VWS V14.01,2013-02-26 14:23:00,
2013-02-26 09:28:00,34.4,25.6,29.74,North,5,4.0,11.0,70,0.00,,,0.00,VWS V14.01,2013-02-26 14:28:00,
2013-02-26 09:33:00,34.6,25.8,29.74,NE,53,4.0,9.0,70,0.00,,,0.00,VWS V14.01,2013-02-26 14:33:00,
2013-02-26 09:38:00,34.6,25.5,29.73,NNE,21,1.0,7.0,69,0.00,,,0.00,VWS V14.01,2013-02-26 14:38:00,
2013-02-26 09:43:00,34.7,25.2,29.73,NE,40,4.0,12.0,68,0.00,,,0.00,VWS V14.01,2013-02-26 14:43:00,
2013-02-26 09:48:00,34.8,25.3,29.72,SE,143,2.0,12.0,68,0.00,,,0.00,VWS V14.01,2013-02-26 14:48:00,
2013-02-26 09:53:00,34.9,25.4,29.71,NNE,28,9.0,11.0,68,0.00,,,0.00,VWS V14.01,2013-02-26 14:53:00,
2013-02-26 09:58:00,35.0,25.5,29.70,NNE,24,0.0,11.0,68,0.00,,,0.00,VWS V14.01,2013-02-26 14:58:00,
2013-02-26 10:03:00,35.1,25.6,29.70,ENE,69,2.0,11.0,68,0.00,,,0.00,VWS V14.01,2013-02-26 15:03:00,
2013-02-26 10:08:00,35.2,25.7,29.69,North,10,1.0,11.0,68,0.00,,,0.00,VWS V14.01,2013-02-26 15:08:00,
2013-02-26 10:13:00,35.3,25.8,29.68,North,5,4.0,11.0,68,0.00,,,0.00,VWS V14.01,2013-02-26 15:13:00,
2013-02-26 10:18:00,35.4,25.9,29.68,ENE,58,3.0,10.0,68,0.00,,,0.00,VWS V14.01,2013-02-26 15:18:00,
2013-02-26 10:23:00,35.5,25.6,29.67,NE,49,3.0,10.0,67,0.00,,,0.00,VWS V14.01,2013-02-26 15:23:00,
2013-02-26 10:28:00,35.5,26.4,29.67,NNW,342,3.0,11.0,69,0.00,,,0.00,VWS V14.01,2013-02-26 15:28:00,
2013-02-26 10:33:00,35.3,27.2,29.67,NNE,19,5.0,11.0,72,0.01,,,0.01,VWS V14.01,2013-02-26 15:33:00,
2013-02-26 10:38:00,35.0,27.6,29.66,North,10,4.0,9.0,74,0.01,,,0.01,VWS V14.01,2013-02-26 15:38:00,
2013-02-26 10:43:00,34.6,27.8,29.66,SE,130,3.0,11.0,76,0.01,,,0.01,VWS V14.01,2013-02-26 15:43:00,
2013-02-26 10:48:00,34.3,28.2,29.65,North,355,3.0,11.0,78,0.01,,,0.01,VWS V14.01,2013-02-26 15:48:00,
2013-02-26 10:53:00,34.1,28.3,29.65,ENE,65,2.0,13.0,79,0.02,,,0.02,VWS V14.01,2013-02-26 15:53:00,
2013-02-26 10:58:00,34.0,28.2,29.64,ENE,57,5.0,14.0,79,0.03,,,0.03,VWS V14.01,2013-02-26 15:58:00,
2013-02-26 11:03:00,33.9,28.7,29.64,NE,41,3.0,14.0,81,0.03,,,0.03,VWS V14.01,2013-02-26 16:03:00,
2013-02-26 11:08:00,33.8,28.9,29.63,NE,43,4.0,14.0,82,0.03,,,0.03,VWS V14.01,2013-02-26 16:08:00,
2013-02-26 11:13:00,33.8,29.2,29.63,ENE,71,5.0,14.0,83,0.04,,,0.04,VWS V14.01,2013-02-26 16:13:00,
2013-02-26 11:18:00,33.7,29.4,29.63,North,355,0.0,10.0,84,0.05,,,0.05,VWS V14.01,2013-02-26 16:18:00,
2013-02-26 11:23:00,33.7,29.4,29.63,East,90,3.0,10.0,84,0.05,,,0.05,VWS V14.01,2013-02-26 16:23:00,
2013-02-26 11:28:00,33.7,29.4,29.62,ENE,57,5.0,10.0,84,0.06,,,0.06,VWS V14.01,2013-02-26 16:28:00,
2013-02-26 11:33:00,33.7,29.7,29.62,North,360,2.0,10.0,85,0.05,,,0.06,VWS V14.01,2013-02-26 16:33:00,
2013-02-26 11:38:00,33.8,29.8,29.61,NE,54,1.0,9.0,85,0.05,,,0.06,VWS V14.01,2013-02-26 16:38:00,
2013-02-26 11:43:00,33.8,29.8,29.60,ENE,74,2.0,8.0,85,0.05,,,0.06,VWS V14.01,2013-02-26 16:43:00,
2013-02-26 11:48:00,33.8,29.8,29.60,NNE,13,5.0,11.0,85,0.06,,,0.07,VWS V14.01,2013-02-26 16:48:00,
2013-02-26 11:53:00,33.9,29.9,29.59,NE,37,4.0,4.0,85,0.06,,,0.07,VWS V14.01,2013-02-26 16:53:00,
2013-02-26 11:58:00,33.9,29.9,29.58,NNE,24,3.0,9.0,85,0.04,,,0.07,VWS V14.01,2013-02-26 16:58:00,
2013-02-26 12:03:00,33.9,29.9,29.57,NNE,15,4.0,12.0,85,0.04,,,0.07,VWS V14.01,2013-02-26 17:03:00,
2013-02-26 12:08:00,34.0,30.0,29.57,East,86,2.0,12.0,85,0.04,,,0.07,VWS V14.01,2013-02-26 17:08:00,
2013-02-26 12:13:00,34.1,30.1,29.57,ENE,64,2.0,11.0,85,0.03,,,0.07,VWS V14.01,2013-02-26 17:13:00,
2013-02-26 12:18:00,34.3,30.3,29.57,North,355,3.0,11.0,85,0.03,,,0.07,VWS V14.01,2013-02-26 17:18:00,
2013-02-26 12:23:00,34.4,30.4,29.57,NNE,17,1.0,11.0,85,0.02,,,0.07,VWS V14.01,2013-02-26 17:23:00,
2013-02-26 12:28:00,34.5,30.5,29.57,NNE,18,0.0,12.0,85,0.02,,,0.08,VWS V14.01,2013-02-26 17:28:00,
2013-02-26 12:33:00,34.6,30.6,29.56,NNE,17,1.0,12.0,85,0.02,,,0.08,VWS V14.01,2013-02-26 17:33:00,
2013-02-26 12:38:00,34.6,30.6,29.56,ENE,77,4.0,12.0,85,0.02,,,0.08,VWS V14.01,2013-02-26 17:38:00,
2013-02-26 12:43:00,34.5,30.5,29.56,NNW,336,6.0,11.0,85,0.02,,,0.08,VWS V14.01,2013-02-26 17:43:00,
2013-02-26 12:48:00,34.4,30.4,29.56,NE,41,3.0,11.0,85,0.01,,,0.08,VWS V14.01,2013-02-26 17:48:00,
2013-02-26 12:53:00,34.3,30.6,29.56,ENE,75,4.0,9.0,86,0.03,,,0.10,VWS V14.01,2013-02-26 17:53:00,
2013-02-26 12:58:00,34.1,30.6,29.57,NE,54,0.0,10.0,87,0.03,,,0.10,VWS V14.01,2013-02-26 17:58:00,
2013-02-26 13:46:00,33.4,31.3,29.56,East,90,0.0,1.0,92,0.12,,,0.20,VWS V14.01,2013-02-26 18:46:00,
2013-02-26 13:51:00,33.4,31.3,29.55,ENE,57,1.0,8.0,92,0.12,,,0.21,VWS V14.01,2013-02-26 18:51:00,
2013-02-26 13:56:00,33.4,31.3,29.55,NW,312,2.0,8.0,92,0.11,,,0.21,VWS V14.01,2013-02-26 18:56:00,
2013-02-26 14:01:00,33.4,31.3,29.55,East,96,5.0,10.0,92,0.12,,,0.22,VWS V14.01,2013-02-26 19:01:00,
2013-02-26 14:06:00,33.5,31.7,29.54,ENE,58,3.0,10.0,93,0.11,,,0.22,VWS V14.01,2013-02-26 19:06:00,
2013-02-26 14:11:00,33.5,31.7,29.54,NNE,32,1.0,10.0,93,0.09,,,0.22,VWS V14.01,2013-02-26 19:11:00,
2013-02-26 14:16:00,33.5,31.7,29.53,East,84,2.0,7.0,93,0.07,,,0.22,VWS V14.01,2013-02-26 19:16:00,
2013-02-26 14:21:00,33.4,31.6,29.53,NNE,30,3.0,7.0,93,0.06,,,0.22,VWS V14.01,2013-02-26 19:21:00,
2013-02-26 14:26:00,33.4,31.6,29.53,NNE,29,2.0,7.0,93,0.05,,,0.22,VWS V14.01,2013-02-26 19:26:00,
2013-02-26 14:31:00,33.2,31.4,29.53,NE,42,3.0,8.0,93,0.03,,,0.22,VWS V14.01,2013-02-26 19:31:00,
2013-02-26 14:36:00,33.2,31.4,29.53,NE,36,2.0,8.0,93,0.03,,,0.22,VWS V14.01,2013-02-26 19:36:00,
2013-02-26 14:41:00,33.2,31.7,29.53,NNE,23,0.0,5.0,94,0.02,,,0.22,VWS V14.01,2013-02-26 19:41:00,
2013-02-26 14:46:00,33.1,31.6,29.53,ENE,59,1.0,5.0,94,0.01,,,0.22,VWS V14.01,2013-02-26 19:46:00,
2013-02-26 14:51:00,33.1,31.6,29.52,NE,55,2.0,5.0,94,0.01,,,0.22,VWS V14.01,2013-02-26 19:51:00,
2013-02-26 14:56:00,33.0,31.5,29.52,NNE,22,2.0,5.0,94,0.01,,,0.22,VWS V14.01,2013-02-26 19:56:00,
2013-02-26 15:01:00,33.0,31.5,29.52,NNE,25,2.0,5.0,94,0.00,,,0.22,VWS V14.01,2013-02-26 20:01:00,
2013-02-26 15:06:00,32.9,31.4,29.52,NE,56,2.0,7.0,94,0.00,,,0.22,VWS V14.01,2013-02-26 20:06:00,
2013-02-26 15:11:00,32.9,31.4,29.52,NE,48,5.0,7.0,94,0.00,,,0.22,VWS V14.01,2013-02-26 20:11:00,
2013-02-26 15:16:00,32.9,31.4,29.51,ENE,76,0.0,7.0,94,0.00,,,0.22,VWS V14.01,2013-02-26 20:16:00,
2013-02-26 15:21:00,33.0,31.7,29.51,ESE,122,1.0,7.0,95,0.00,,,0.22,VWS V14.01,2013-02-26 20:21:00,
2013-02-26 15:26:00,33.0,31.7,29.51,East,83,5.0,7.0,95,0.00,,,0.22,VWS V14.01,2013-02-26 20:26:00,
2013-02-26 15:31:00,33.1,31.8,29.51,East,90,6.0,8.0,95,0.01,,,0.23,VWS V14.01,2013-02-26 20:31:00,
2013-02-26 15:36:00,33.2,31.9,29.51,NNE,29,1.0,10.0,95,0.01,,,0.23,VWS V14.01,2013-02-26 20:36:00,
2013-02-26 15:41:00,33.2,31.9,29.51,NE,39,0.0,10.0,95,0.01,,,0.23,VWS V14.01,2013-02-26 20:41:00,
2013-02-26 15:46:00,33.3,32.0,29.51,ENE,78,2.0,5.0,95,0.01,,,0.23,VWS V14.01,2013-02-26 20:46:00,
2013-02-26 15:51:00,33.3,32.0,29.51,NNE,15,2.0,5.0,95,0.01,,,0.23,VWS V14.01,2013-02-26 20:51:00,
2013-02-26 15:56:00,33.4,32.1,29.51,SE,143,0.0,9.0,95,0.02,,,0.24,VWS V14.01,2013-02-26 20:56:00,
2013-02-26 16:01:00,33.4,32.1,29.51,ENE,60,1.0,9.0,95,0.02,,,0.24,VWS V14.01,2013-02-26 21:01:00,
2013-02-26 16:06:00,33.5,32.2,29.51,ENE,67,1.0,9.0,95,0.02,,,0.24,VWS V14.01,2013-02-26 21:06:00,
2013-02-26 16:11:00,33.6,32.3,29.51,ENE,78,0.0,5.0,95,0.02,,,0.24,VWS V14.01,2013-02-26 21:11:00,
2013-02-26 16:16:00,33.6,32.3,29.51,East,81,0.0,5.0,95,0.02,,,0.24,VWS V14.01,2013-02-26 21:16:00,
2013-02-26 16:21:00,33.7,32.4,29.50,East,87,1.0,6.0,95,0.02,,,0.24,VWS V14.01,2013-02-26 21:21:00,
2013-02-26 16:26:00,33.7,32.4,29.51,NE,53,0.0,6.0,95,0.02,,,0.24,VWS V14.01,2013-02-26 21:26:00,
2013-02-26 16:31:00,33.7,32.4,29.51,North,10,2.0,9.0,95,0.02,,,0.24,VWS V14.01,2013-02-26 21:31:00,
2013-02-26 16:36:00,33.7,32.4,29.51,ENE,74,0.0,9.0,95,0.01,,,0.24,VWS V14.01,2013-02-26 21:36:00,
2013-02-26 16:41:00,33.7,32.4,29.51,ENE,59,0.0,9.0,95,0.01,,,0.24,VWS V14.01,2013-02-26 21:41:00,
2013-02-26 16:46:00,33.7,32.4,29.51,NE,50,3.0,5.0,95,0.02,,,0.25,VWS V14.01,2013-02-26 21:46:00,
2013-02-26 16:51:00,33.7,32.4,29.51,East,82,0.0,4.0,95,0.02,,,0.25,VWS V14.01,2013-02-26 21:51:00,
2013-02-26 16:56:00,33.7,32.4,29.51,NNE,28,0.0,3.0,95,0.01,,,0.25,VWS V14.01,2013-02-26 21:56:00,
2013-02-26 17:01:00,33.7,32.4,29.51,ENE,57,2.0,5.0,95,0.01,,,0.25,VWS V14.01,2013-02-26 22:01:00,
2013-02-26 17:06:00,33.7,32.4,29.51,North,5,2.0,5.0,95,0.01,,,0.25,VWS V14.01,2013-02-26 22:06:00,
2013-02-26 17:11:00,33.7,32.4,29.51,ENE,57,1.0,5.0,95,0.01,,,0.25,VWS V14.01,2013-02-26 22:11:00,
2013-02-26 17:16:00,33.6,32.3,29.51,NE,48,0.0,3.0,95,0.01,,,0.25,VWS V14.01,2013-02-26 22:16:00,
2013-02-26 17:21:00,33.5,32.2,29.51,ENE,59,3.0,6.0,95,0.01,,,0.25,VWS V14.01,2013-02-26 22:21:00,
2013-02-26 17:26:00,33.5,32.2,29.51,NE,51,0.0,6.0,95,0.01,,,0.25,VWS V14.01,2013-02-26 22:26:00,
2013-02-26 17:31:00,33.5,32.2,29.51,NE,54,1.0,6.0,95,0.01,,,0.25,VWS V14.01,2013-02-26 22:31:00,
2013-02-26 17:36:00,33.4,32.1,29.51,ENE,76,1.0,4.0,95,0.01,,,0.25,VWS V14.01,2013-02-26 22:36:00,
2013-02-26 17:41:00,33.4,32.1,29.51,NE,40,0.0,5.0,95,0.01,,,0.25,VWS V14.01,2013-02-26 22:41:00,
2013-02-26 17:46:00,33.3,32.0,29.51,NE,53,2.0,5.0,95,0.00,,,0.25,VWS V14.01,2013-02-26 22:46:00,
2013-02-26 17:51:00,33.3,32.0,29.52,ENE,70,2.0,4.0,95,0.00,,,0.25,VWS V14.01,2013-02-26 22:51:00,
2013-02-26 17:56:00,33.2,31.9,29.51,ENE,59,1.0,4.0,95,0.00,,,0.25,VWS V14.01,2013-02-26 22:56:00,
2013-02-26 18:01:00,33.2,31.9,29.52,NE,36,1.0,4.0,95,0.00,,,0.25,VWS V14.01,2013-02-26 23:01:00,
2013-02-26 18:06:00,33.2,32.2,29.51,ENE,63,0.0,4.0,96,0.01,,,0.26,VWS V14.01,2013-02-26 23:06:00,
2013-02-26 18:11:00,33.2,32.2,29.51,NE,49,0.0,4.0,96,0.01,,,0.26,VWS V14.01,2013-02-26 23:11:00,
2013-02-26 18:16:00,33.3,32.3,29.51,ENE,76,1.0,4.0,96,0.01,,,0.26,VWS V14.01,2013-02-26 23:16:00,
2013-02-26 18:21:00,33.3,32.3,29.51,ENE,76,0.0,3.0,96,0.01,,,0.26,VWS V14.01,2013-02-26 23:21:00,
2013-02-26 18:26:00,33.2,32.2,29.51,ENE,74,0.0,3.0,96,0.01,,,0.26,VWS V14.01,2013-02-26 23:26:00,
2013-02-26 18:31:00,33.2,32.2,29.51,NNE,32,0.0,2.0,96,0.01,,,0.26,VWS V14.01,2013-02-26 23:31:00,
2013-02-26 18:36:00,33.2,32.2,29.51,NE,46,0.0,3.0,96,0.01,,,0.26,VWS V14.01,2013-02-26 23:36:00,
2013-02-26 18:41:00,33.2,32.2,29.51,ENE,72,0.0,3.0,96,0.01,,,0.26,VWS V14.01,2013-02-26 23:41:00,
2013-02-26 18:46:00,33.1,32.1,29.51,NE,41,0.0,3.0,96,0.01,,,0.26,VWS V14.01,2013-02-26 23:46:00,
2013-02-26 18:51:00,33.1,32.1,29.51,NNW,348,0.0,3.0,96,0.01,,,0.26,VWS V14.01,2013-02-26 23:51:00,
2013-02-26 18:56:00,33.1,32.1,29.50,NE,53,0.0,3.0,96,0.01,,,0.26,VWS V14.01,2013-02-26 23:56:00,
2013-02-26 19:01:00,33.1,32.1,29.51,NNE,28,0.0,3.0,96,0.01,,,0.26,VWS V14.01,2013-02-27 00:01:00,
2013-02-26 19:06:00,33.1,32.1,29.51,ENE,66,0.0,3.0,96,0.01,,,0.27,VWS V14.01,2013-02-27 00:06:00,
2013-02-26 19:11:00,33.1,32.1,29.51,ENE,66,0.0,3.0,96,0.01,,,0.27,VWS V14.01,2013-02-27 00:11:00,
2013-02-26 19:16:00,33.1,32.1,29.51,NE,39,0.0,3.0,96,0.01,,,0.27,VWS V14.01,2013-02-27 00:16:00,
2013-02-26 19:21:00,33.2,32.2,29.52,NE,36,0.0,3.0,96,0.01,,,0.27,VWS V14.01,2013-02-27 00:21:00,
2013-02-26 19:26:00,33.1,32.1,29.52,NE,36,0.0,3.0,96,0.01,,,0.27,VWS V14.01,2013-02-27 00:26:00,
2013-02-26 19:31:00,33.1,32.1,29.52,ENE,70,0.0,2.0,96,0.01,,,0.27,VWS V14.01,2013-02-27 00:31:00,
2013-02-26 19:36:00,33.0,32.0,29.52,ENE,70,0.0,2.0,96,0.01,,,0.27,VWS V14.01,2013-02-27 00:36:00,
2013-02-26 19:41:00,33.0,32.0,29.52,NNE,24,1.0,2.0,96,0.01,,,0.27,VWS V14.01,2013-02-27 00:41:00,
2013-02-26 19:46:00,33.0,32.0,29.52,NNE,29,0.0,3.0,96,0.01,,,0.27,VWS V14.01,2013-02-27 00:46:00,
2013-02-26 19:51:00,33.0,32.0,29.51,NNE,28,0.0,3.0,96,0.01,,,0.27,VWS V14.01,2013-02-27 00:51:00,
2013-02-26 19:56:00,33.0,32.0,29.51,NNE,18,0.0,3.0,96,0.01,,,0.27,VWS V14.01,2013-02-27 00:56:00,
2013-02-26 20:01:00,33.0,32.0,29.51,NNE,19,0.0,2.0,96,0.01,,,0.27,VWS V14.01,2013-02-27 01:01:00,
2013-02-26 20:06:00,33.0,32.0,29.51,NNE,19,0.0,2.0,96,0.01,,,0.27,VWS V14.01,2013-02-27 01:06:00,
2013-02-26 20:11:00,32.9,31.9,29.51,NNE,19,0.0,2.0,96,0.00,,,0.27,VWS V14.01,2013-02-27 01:11:00,
2013-02-26 20:16:00,32.9,31.9,29.51,NE,42,0.0,3.0,96,0.00,,,0.27,VWS V14.01,2013-02-27 01:16:00,
2013-02-26 20:21:00,32.8,31.8,29.51,NNE,23,0.0,3.0,96,0.00,,,0.27,VWS V14.01,2013-02-27 01:21:00,
2013-02-26 20:25:00,32.8,31.8,29.50,NNE,24,0.0,3.0,96,0.00,,,0.27,VWS V14.01,2013-02-27 01:25:00,
2013-02-26 20:30:00,32.7,31.7,29.50,NNE,24,0.0,1.0,96,0.00,,,0.27,VWS V14.01,2013-02-27 01:30:00,
2013-02-26 20:35:00,32.7,31.7,29.50,NNE,32,0.0,2.0,96,0.00,,,0.27,VWS V14.01,2013-02-27 01:35:00,
2013-02-26 20:40:00,32.7,31.7,29.50,NNE,32,0.0,2.0,96,0.00,,,0.27,VWS V14.01,2013-02-27 01:40:00,
2013-02-26 20:45:00,32.7,31.7,29.50,NE,46,0.0,2.0,96,0.00,,,0.27,VWS V14.01,2013-02-27 01:45:00,
2013-02-26 20:50:00,32.7,31.7,29.50,NE,46,0.0,0.0,96,0.00,,,0.27,VWS V14.01,2013-02-27 01:50:00,
2013-02-26 20:55:00,32.6,31.8,29.50,North,5,0.0,1.0,97,0.00,,,0.27,VWS V14.01,2013-02-27 01:55:00,
2013-02-26 21:00:00,32.7,31.9,29.50,NE,52,0.0,2.0,97,0.00,,,0.27,VWS V14.01,2013-02-27 02:00:00,
2013-02-26 21:05:00,32.7,31.9,29.49,NE,52,0.0,2.0,97,0.00,,,0.27,VWS V14.01,2013-02-27 02:05:00,
2013-02-26 21:10:00,32.7,31.9,29.50,NE,52,0.0,2.0,97,0.00,,,0.27,VWS V14.01,2013-02-27 02:10:00,
2013-02-26 21:15:00,32.7,31.9,29.50,NE,52,0.0,0.0,97,0.00,,,0.27,VWS V14.01,2013-02-27 02:15:00,
2013-02-26 21:20:00,32.7,31.9,29.50,NE,47,0.0,0.0,97,0.00,,,0.27,VWS V14.01,2013-02-27 02:20:00,
2013-02-26 21:26:00,32.7,31.9,29.50,NE,47,0.0,1.0,97,0.00,,,0.27,VWS V14.01,2013-02-27 02:26:00,
2013-02-26 21:31:00,32.7,31.9,29.50,NE,47,0.0,1.0,97,0.00,,,0.27,VWS V14.01,2013-02-27 02:31:00,
2013-02-26 21:36:00,32.8,32.0,29.50,ENE,57,0.0,1.0,97,0.00,,,0.27,VWS V14.01,2013-02-27 02:36:00,
2013-02-26 21:41:00,32.8,32.0,29.49,ENE,58,0.0,1.0,97,0.00,,,0.27,VWS V14.01,2013-02-27 02:41:00,
2013-02-26 21:46:00,32.8,32.0,29.50,ENE,58,0.0,1.0,97,0.00,,,0.27,VWS V14.01,2013-02-27 02:46:00,
2013-02-26 21:51:00,32.7,31.9,29.49,ENE,58,0.0,0.0,97,0.00,,,0.27,VWS V14.01,2013-02-27 02:51:00,
2013-02-26 21:56:00,32.7,31.9,29.50,ENE,58,0.0,0.0,97,0.00,,,0.27,VWS V14.01,2013-02-27 02:56:00,
2013-02-26 22:01:00,32.7,31.9,29.50,NE,36,0.0,0.0,97,0.00,,,0.27,VWS V14.01,2013-02-27 03:01:00,
2013-02-26 22:05:00,32.7,31.9,29.50,NE,36,0.0,0.0,97,0.00,,,0.27,VWS V14.01,2013-02-27 03:05:00,
2013-02-26 22:10:00,32.7,31.9,29.49,NE,36,0.0,0.0,97,0.00,,,0.27,VWS V14.01,2013-02-27 03:10:00,
2013-02-26 22:15:00,32.7,31.9,29.49,NE,36,0.0,0.0,97,0.00,,,0.27,VWS V14.01,2013-02-27 03:15:00,
2013-02-26 22:20:00,32.7,31.9,29.49,East,88,0.0,0.0,97,0.00,,,0.27,VWS V14.01,2013-02-27 03:20:00,
2013-02-26 22:25:00,32.7,31.9,29.48,East,88,0.0,0.0,97,0.01,,,0.28,VWS V14.01,2013-02-27 03:25:00,
2013-02-26 22:30:00,32.7,31.9,29.49,East,88,0.0,0.0,97,0.01,,,0.28,VWS V14.01,2013-02-27 03:30:00,
2013-02-26 22:35:00,32.7,31.9,29.49,East,88,0.0,0.0,97,0.01,,,0.28,VWS V14.01,2013-02-27 03:35:00,
2013-02-26 22:40:00,32.7,31.9,29.48,East,88,0.0,0.0,97,0.01,,,0.28,VWS V14.01,2013-02-27 03:40:00,
2013-02-26 22:45:00,32.7,31.9,29.48,East,88,0.0,0.0,97,0.01,,,0.28,VWS V14.01,2013-02-27 03:45:00,
2013-02-26 22:50:00,32.7,31.9,29.48,East,88,0.0,0.0,97,0.01,,,0.28,VWS V14.01,2013-02-27 03:50:00,
2013-02-26 22:55:00,32.6,31.8,29.48,East,88,0.0,0.0,97,0.01,,,0.28,VWS V14.01,2013-02-27 03:55:00,
2013-02-26 23:00:00,32.6,31.8,29.48,East,88,0.0,0.0,97,0.01,,,0.28,VWS V14.01,2013-02-27 04:00:00,
2013-02-26 23:05:00,32.6,31.8,29.48,East,88,0.0,0.0,97,0.01,,,0.28,VWS V14.01,2013-02-27 04:05:00,
2013-02-26 23:10:00,32.6,31.8,29.48,East,88,0.0,0.0,97,0.01,,,0.28,VWS V14.01,2013-02-27 04:10:00,
2013-02-26 23:15:00,32.6,31.8,29.48,East,88,0.0,0.0,97,0.01,,,0.28,VWS V14.01,2013-02-27 04:15:00,
2013-02-26 23:20:00,32.6,31.8,29.48,East,88,0.0,0.0,97,0.01,,,0.28,VWS V14.01,2013-02-27 04:20:00,
2013-02-26 23:25:00,32.6,31.8,29.48,East,88,0.0,0.0,97,0.01,,,0.28,VWS V14.01,2013-02-27 04:25:00,
2013-02-26 23:30:00,32.6,31.8,29.48,East,88,0.0,0.0,97,0.00,,,0.28,VWS V14.01,2013-02-27 04:30:00,
2013-02-26 23:35:00,32.6,31.8,29.48,East,88,0.0,0.0,97,0.00,,,0.28,VWS V14.01,2013-02-27 04:35:00,
2013-02-26 23:40:00,32.6,31.8,29.48,East,88,0.0,0.0,97,0.00,,,0.28,VWS V14.01,2013-02-27 04:40:00,
2013-02-26 23:45:00,32.6,31.8,29.48,East,88,0.0,0.0,97,0.00,,,0.28,VWS V14.01,2013-02-27 04:45:00,
2013-02-26 23:50:00,32.6,31.8,29.48,East,88,0.0,0.0,97,0.00,,,0.28,VWS V14.01,2013-02-27 04:50:00,
2013-02-26 23:55:00,32.5,31.7,29.48,East,88,0.0,0.0,97,0.00,,,0.28,VWS V14.01,2013-02-27 04:55:00,